Le nostre stazioni meteo in Italia

Pubblicità
Il mio iltempo24.it
Kinlochewe, Gran Bretagna (99092): Temperatura & dewpoint: 02.12.2019 13:00:00 - 08.12.2019 13:00:00 (GMT)Kinlochewe, Gran Bretagna (99092): Temperatura -20cm: 02.12.2019 13:00:00 - 08.12.2019 13:00:00 (GMT)Kinlochewe, Gran Bretagna (99092): precipitazioni: 02.12.2019 13:00:00 - 08.12.2019 13:00:00 (GMT)
Data & Tempo tt [°C] td [°C] tt -20cm [°C] rr [mm]
08.12.2019 13:00:00 - - - -
08.12.2019 12:00:00 5,7 3,5 - 1,6
08.12.2019 11:00:00 6,6 2,6 - 1,4
08.12.2019 10:00:00 7,3 1,1 - 0,0
08.12.2019 09:00:00 6,0 2,1 7,0 0,8
08.12.2019 08:00:00 6,8 2,9 - 0,4
08.12.2019 07:00:00 7,3 2,0 - 0,2
08.12.2019 06:00:00 7,5 1,6 - 0,4
08.12.2019 05:00:00 7,2 3,3 - 0,6
08.12.2019 04:00:00 7,9 2,3 - 0,0
08.12.2019 03:00:00 8,0 3,9 - 3,4
08.12.2019 02:00:00 7,7 5,0 - 2,2
08.12.2019 01:00:00 8,6 5,4 - 5,2
08.12.2019 00:00:00 10,5 7,7 - 6,0
07.12.2019 23:00:00 11,5 9,9 - 6,8
07.12.2019 22:00:00 11,5 9,7 - 9,0
07.12.2019 21:00:00 11,9 9,8 - 6,4
07.12.2019 20:00:00 12,1 9,9 - 3,6
07.12.2019 19:00:00 11,9 9,9 - 4,4
07.12.2019 18:00:00 11,6 10,0 - 5,4
07.12.2019 17:00:00 11,7 9,9 - 5,4
07.12.2019 16:00:00 11,1 9,6 - 4,2
07.12.2019 15:00:00 11,0 8,9 - 2,0
07.12.2019 14:00:00 10,4 8,7 - 2,0
07.12.2019 13:00:00 8,8 8,3 - 2,4
07.12.2019 12:00:00 8,2 7,7 - 0,4
07.12.2019 11:00:00 7,9 7,4 - 0,2
07.12.2019 10:00:00 5,7 5,5 - 0,0
07.12.2019 09:00:00 5,4 5,2 6,5 0,0
07.12.2019 08:00:00 5,4 5,0 - 0,0
07.12.2019 07:00:00 4,7 4,3 - 0,0
07.12.2019 06:00:00 5,0 3,9 - 0,0
07.12.2019 05:00:00 6,6 4,6 - 0,0
07.12.2019 04:00:00 6,1 4,5 - 0,6
07.12.2019 03:00:00 5,9 4,4 - 0,4
07.12.2019 02:00:00 6,2 4,4 - 0,0
07.12.2019 01:00:00 6,1 4,6 - 0,8
07.12.2019 00:00:00 6,4 4,9 - 0,4
06.12.2019 23:00:00 6,0 5,1 - 0,4
06.12.2019 22:00:00 6,4 5,2 - 0,0
06.12.2019 21:00:00 6,3 5,1 - 0,0
06.12.2019 20:00:00 6,8 5,3 - 0,0
06.12.2019 19:00:00 7,1 5,3 - 0,2
06.12.2019 18:00:00 7,2 6,4 - 0,0
06.12.2019 17:00:00 7,7 6,9 - 0,6
06.12.2019 16:00:00 9,2 6,7 - 0,0
06.12.2019 15:00:00 9,5 6,2 - 0,0
06.12.2019 14:00:00 9,3 6,8 - 0,0
06.12.2019 13:00:00 8,4 7,3 - 1,0
06.12.2019 12:00:00 8,9 7,4 - 0,0
06.12.2019 11:00:00 8,5 7,5 - 0,6
06.12.2019 10:00:00 9,4 5,8 - 0,2
06.12.2019 09:00:00 9,2 6,8 6,4 0,0
06.12.2019 08:00:00 9,6 7,5 - 1,0
06.12.2019 07:00:00 10,0 9,0 - 1,0
06.12.2019 06:00:00 10,5 9,0 - 0,0
06.12.2019 05:00:00 10,2 8,8 - 0,4
06.12.2019 04:00:00 10,0 8,9 - 0,2
06.12.2019 03:00:00 10,0 8,8 - 2,0
06.12.2019 02:00:00 10,4 8,7 - 1,2
06.12.2019 01:00:00 10,8 8,6 - 0,4
06.12.2019 00:00:00 11,1 8,9 - 0,4
05.12.2019 23:00:00 11,0 9,0 - 0,0
05.12.2019 22:00:00 10,5 9,3 - 0,2
05.12.2019 21:00:00 9,9 9,2 - 0,2
05.12.2019 20:00:00 10,1 9,2 - 1,0
05.12.2019 19:00:00 10,6 9,8 - 4,2
05.12.2019 18:00:00 11,9 9,9 - 3,6
05.12.2019 17:00:00 12,0 10,0 - 4,8
05.12.2019 16:00:00 12,1 10,1 - 6,4
05.12.2019 15:00:00 10,0 8,8 - 7,0
05.12.2019 14:00:00 10,0 8,5 - 6,4
05.12.2019 13:00:00 9,4 7,1 - 1,8
05.12.2019 12:00:00 9,3 7,1 - 0,8
05.12.2019 11:00:00 9,5 7,2 - 2,6
05.12.2019 10:00:00 9,0 7,0 - 2,4
05.12.2019 09:00:00 8,2 6,2 5,7 1,0
05.12.2019 08:00:00 9,3 5,7 - 0,2
05.12.2019 07:00:00 9,6 4,6 - 0,2
05.12.2019 06:00:00 8,8 4,6 - 0,0
05.12.2019 05:00:00 9,0 3,2 - 0,2
05.12.2019 04:00:00 8,2 3,4 - 0,6
05.12.2019 03:00:00 8,3 2,8 - 0,6
05.12.2019 02:00:00 7,3 3,1 - 0,8
05.12.2019 01:00:00 8,2 1,8 - 0,0
05.12.2019 00:00:00 7,5 2,8 - 0,4
04.12.2019 23:00:00 7,7 1,8 - 0,0
04.12.2019 22:00:00 6,3 3,1 - 1,0
04.12.2019 21:00:00 8,0 1,0 - 0,0
04.12.2019 20:00:00 7,0 1,1 - 0,0
04.12.2019 19:00:00 7,0 1,6 - 0,2
04.12.2019 18:00:00 6,7 2,0 - 0,2
04.12.2019 17:00:00 7,8 1,4 - 0,4
04.12.2019 16:00:00 8,0 2,2 - 0,6
04.12.2019 15:00:00 7,5 2,4 - 1,2
04.12.2019 14:00:00 9,2 1,1 - 0,0
04.12.2019 13:00:00 8,6 1,4 - 0,0
04.12.2019 12:00:00 8,9 3,8 - 0,0
04.12.2019 11:00:00 8,4 5,2 - 2,2
04.12.2019 10:00:00 9,1 7,6 - 4,0
04.12.2019 09:00:00 9,2 6,9 5,7 1,8
04.12.2019 08:00:00 8,4 6,4 - 0,8
04.12.2019 07:00:00 8,6 6,0 - 0,2
04.12.2019 06:00:00 8,6 6,0 - 0,2
04.12.2019 05:00:00 8,4 5,9 - 0,2
04.12.2019 04:00:00 8,2 5,9 - 0,0
04.12.2019 03:00:00 8,7 5,4 - 0,0
04.12.2019 02:00:00 9,2 5,0 - 0,0
04.12.2019 01:00:00 9,0 4,5 - 0,0
04.12.2019 00:00:00 9,1 3,7 - 0,0
03.12.2019 23:00:00 8,9 3,3 - 0,0
03.12.2019 22:00:00 8,6 3,1 - 0,0
03.12.2019 21:00:00 8,5 3,1 - 0,0
03.12.2019 20:00:00 8,6 2,8 - 0,0
03.12.2019 19:00:00 8,3 2,8 - 0,0
03.12.2019 18:00:00 7,9 3,0 - 0,0
03.12.2019 17:00:00 7,8 3,1 - 0,0
03.12.2019 16:00:00 8,0 3,1 - 0,0
03.12.2019 15:00:00 8,8 3,6 - 0,0
03.12.2019 14:00:00 9,7 4,1 - 0,0
03.12.2019 13:00:00 9,8 5,0 - 0,0
03.12.2019 12:00:00 10,0 5,2 - 0,0
03.12.2019 11:00:00 10,1 5,4 - 0,0
03.12.2019 10:00:00 9,9 5,2 - 0,0
03.12.2019 09:00:00 9,4 4,8 5,2 0,0
03.12.2019 08:00:00 9,4 4,8 - 0,0
03.12.2019 07:00:00 9,3 5,1 - 0,0
03.12.2019 06:00:00 9,5 5,4 - 0,0
03.12.2019 05:00:00 9,3 5,5 - 0,0
03.12.2019 04:00:00 9,3 5,5 - 0,0
03.12.2019 03:00:00 9,5 5,3 - 0,0
03.12.2019 02:00:00 9,5 5,3 - 0,0
03.12.2019 01:00:00 9,4 5,9 - 0,0
03.12.2019 00:00:00 9,4 6,2 - 0,0
02.12.2019 23:00:00 9,5 7,0 - 0,0
02.12.2019 22:00:00 9,9 6,6 - 0,0
02.12.2019 21:00:00 10,2 7,3 - 0,0
02.12.2019 20:00:00 10,7 7,5 - 0,0
02.12.2019 19:00:00 9,2 8,3 - 0,0
02.12.2019 18:00:00 9,2 8,4 - 0,2
02.12.2019 17:00:00 9,1 8,2 - 0,6
02.12.2019 16:00:00 8,9 8,0 - 2,2
02.12.2019 15:00:00 8,9 8,0 - 0,6
02.12.2019 14:00:00 8,5 8,0 - 2,2
02.12.2019 13:00:00 7,0 6,8 - 1,6

tt = Temperatura
td = dewpoint
tt -20cm = Temperatura -20cm
rr = precipitazioni

Stazioni seguenti

WeatherPro
AMSI
MeteoEarth